Radiation Dose at Monitoring Post of Fukushima Daini Nuclear Power Station
Date,Time,MP-1(microSv/h),MP-2(microSv/h),MP-3(microSv/h),MP-4(microSv/h),MP-5(microSv/h),MP-6(microSv/h),MP-7(microSv/h),Wind Direction,Wind Velocity(m/s),Rain
2017/07/14,00:00,0.358,0.221,0.368,0.343,0.325,0.179,0.107,south-southwest,4.9,No
2017/07/14,00:10,0.356,0.221,0.370,0.341,0.325,0.180,0.106,south-southwest,5.5,No
2017/07/14,00:20,0.361,0.222,0.371,0.346,0.323,0.180,0.106,south-southwest,6.2,No
2017/07/14,00:30,0.359,0.221,0.368,0.343,0.322,0.180,0.108,south-southwest,6.1,No
2017/07/14,00:40,0.356,0.221,0.367,0.342,0.326,0.179,0.107,south,5.1,No
2017/07/14,00:50,0.358,0.222,0.372,0.345,0.325,0.181,0.106,south,6.0,No
2017/07/14,01:00,0.361,0.222,0.369,0.345,0.322,0.180,0.108,south,5.8,No
2017/07/14,01:10,0.356,0.221,0.367,0.342,0.326,0.178,0.107,south,7.3,No
2017/07/14,01:20,0.356,0.222,0.371,0.344,0.325,0.180,0.106,south,7.3,No
2017/07/14,01:30,0.360,0.220,0.370,0.346,0.322,0.180,0.106,south,7.4,No
2017/07/14,01:40,0.357,0.220,0.367,0.342,0.324,0.179,0.106,south-southwest,7.5,No
2017/07/14,01:50,0.360,0.223,0.371,0.344,0.324,0.180,0.106,south-southwest,6.6,No
2017/07/14,02:00,0.360,0.221,0.371,0.347,0.323,0.180,0.107,south-southwest,6.1,No
2017/07/14,02:10,0.357,0.222,0.367,0.342,0.323,0.180,0.107,south-southwest,4.4,No
2017/07/14,02:20,0.359,0.223,0.370,0.342,0.326,0.180,0.107,south-southwest,3.4,No
2017/07/14,02:30,0.362,0.221,0.371,0.346,0.323,0.181,0.107,south,3.7,No
2017/07/14,02:40,0.359,0.221,0.369,0.342,0.323,0.179,0.107,south-southwest,3.9,No
2017/07/14,02:50,0.357,0.221,0.368,0.341,0.325,0.181,0.107,south-southwest,3.4,No
2017/07/14,03:00,0.362,0.220,0.372,0.346,0.324,0.180,0.108,south-southwest,4.1,No
2017/07/14,03:10,0.359,0.221,0.369,0.345,0.322,0.180,0.106,south-southwest,4.5,No
2017/07/14,03:20,0.357,0.222,0.367,0.342,0.327,0.181,0.107,south-southwest,3.9,No
2017/07/14,03:30,0.362,0.221,0.375,0.345,0.324,0.180,0.107,south-southwest,3.3,No
2017/07/14,03:40,0.357,0.223,0.370,0.347,0.322,0.179,0.107,south-southwest,5.3,No
2017/07/14,03:50,0.356,0.222,0.367,0.342,0.328,0.181,0.107,south-southwest,5.8,No
2017/07/14,04:00,0.361,0.221,0.374,0.344,0.325,0.180,0.108,southwest,5.9,No
2017/07/14,04:10,0.360,0.223,0.371,0.346,0.322,0.180,0.107,southwest,5.0,No
2017/07/14,04:20,0.356,0.223,0.367,0.344,0.326,0.180,0.107,southwest,5.5,No
2017/07/14,04:30,0.361,0.221,0.372,0.343,0.326,0.181,0.107,southwest,6.4,No
2017/07/14,04:40,0.361,0.222,0.371,0.347,0.323,0.180,0.106,southwest,5.4,No
2017/07/14,04:50,0.357,0.222,0.367,0.345,0.323,0.180,0.107,west-southwest,3.6,No
2017/07/14,05:00,0.361,0.221,0.373,0.342,0.326,0.181,0.108,west,2.5,No
2017/07/14,05:10,0.361,0.223,0.371,0.347,0.323,0.180,0.108,west,1.2,No
2017/07/14,05:20,0.357,0.222,0.368,0.344,0.324,0.181,0.108,west-northwest,0.7,No
2017/07/14,05:30,0.360,0.222,0.370,0.341,0.326,0.181,0.108,south-southwest,1.3,No
2017/07/14,05:40,0.361,0.223,0.372,0.345,0.325,0.181,0.106,south-southwest,1.4,No
2017/07/14,05:50,0.357,0.223,0.370,0.346,0.324,0.181,0.108,south-southwest,1.3,No
2017/07/14,06:00,0.358,0.222,0.367,0.343,0.322,0.180,0.107,southwest,1.0,No
2017/07/14,06:10,0.360,0.220,0.372,0.341,0.321,0.181,0.107,west-southwest,0.9,No
2017/07/14,06:20,0.358,0.222,0.371,0.344,0.326,0.180,0.107,southwest,2.3,No
2017/07/14,06:30,0.356,0.224,0.369,0.344,0.325,0.180,0.107,south-southwest,2.5,No
2017/07/14,06:40,0.360,0.223,0.367,0.344,0.324,0.181,0.108,south,3.1,No
2017/07/14,06:50,0.361,0.221,0.373,0.342,0.322,0.179,0.106,south,3.6,No
2017/07/14,07:00,0.358,0.221,0.370,0.343,0.321,0.179,0.107,south-southwest,4.4,No
2017/07/14,07:10,0.356,0.221,0.369,0.347,0.324,0.181,0.107,south-southwest,4.9,No
2017/07/14,07:20,0.361,0.221,0.368,0.346,0.326,0.180,0.108,south-southwest,4.5,No
2017/07/14,07:30,0.361,0.221,0.367,0.344,0.325,0.180,0.107,south-southwest,4.2,No
2017/07/14,07:40,0.359,0.220,0.366,0.342,0.323,0.180,0.107,south,3.6,No
2017/07/14,07:50,0.357,0.222,0.367,0.343,0.324,0.181,0.107,south,4.2,No
2017/07/14,08:00,0.356,0.222,0.368,0.343,0.324,0.181,0.107,south-southwest,4.1,No
2017/07/14,08:10,0.357,0.223,0.368,0.342,0.324,0.180,0.107,south-southwest,4.5,No
2017/07/14,08:20,0.356,0.222,0.369,0.344,0.324,0.180,0.107,south-southwest,3.6,No
2017/07/14,08:30,0.356,0.223,0.368,0.343,0.325,0.179,0.106,south-southwest,2.2,No
2017/07/14,08:40,0.356,0.223,0.368,0.345,0.326,0.180,0.107,south-southwest,1.7,No
2017/07/14,08:50,0.357,0.223,0.370,0.344,0.325,0.179,0.108,south-southwest,2.3,No
2017/07/14,09:00,0.359,0.223,0.369,0.346,0.326,0.181,0.110,south-southwest,3.3,No
2017/07/14,09:10,0.360,0.223,0.369,0.344,0.325,0.181,0.107,south,4.9,No
2017/07/14,09:20,0.358,0.223,0.369,0.346,0.326,0.180,0.107,south,6.5,No
2017/07/14,09:30,0.359,0.223,0.369,0.345,0.325,0.181,0.107,south,7.3,No
2017/07/14,09:40,0.359,0.223,0.370,0.345,0.327,0.180,0.108,south,6.1,No
2017/07/14,09:50,0.360,0.223,0.370,0.345,0.326,0.180,0.107,south,6.4,No
2017/07/14,10:00,0.362,0.224,0.370,0.347,0.324,0.182,0.108,south,5.6,No
2017/07/14,10:10,0.360,0.222,0.370,0.347,0.324,0.180,0.108,south,5.7,No
2017/07/14,10:20,0.362,0.222,0.368,0.346,0.326,0.180,0.109,south,4.7,No
2017/07/14,10:30,0.361,0.222,0.370,0.347,0.326,0.180,0.109,south,6.1,No
2017/07/14,10:40,0.361,0.222,0.372,0.346,0.326,0.181,0.110,south,8.5,No
2017/07/14,10:50,0.362,0.221,0.373,0.347,0.327,0.181,0.108,south,9.1,No
2017/07/14,11:00,0.361,0.222,0.372,0.346,0.325,0.181,0.107,south,9.4,No
2017/07/14,11:10,0.361,0.224,0.373,0.345,0.324,0.181,0.108,south,8.9,No
2017/07/14,11:20,0.361,0.224,0.373,0.346,0.326,0.181,0.107,south,8.9,No
2017/07/14,11:30,0.363,0.222,0.373,0.345,0.324,0.181,0.108,south,10.1,No
2017/07/14,11:40,0.363,0.223,0.374,0.346,0.325,0.180,0.109,south,9.1,No
2017/07/14,11:50,0.363,0.224,0.373,0.347,0.326,0.181,0.109,south,9.8,No
2017/07/14,12:00,0.362,0.223,0.369,0.346,0.326,0.180,0.110,south,10.0,No
2017/07/14,12:10,0.360,0.224,0.372,0.347,0.326,0.181,0.108,south,9.8,No
2017/07/14,12:20,0.362,0.223,0.370,0.346,0.327,0.179,0.109,south,9.8,Yes
2017/07/14,12:30,0.361,0.223,0.370,0.346,0.326,0.181,0.109,south-southwest,8.1,Yes
2017/07/14,12:40,0.360,0.224,0.370,0.345,0.327,0.181,0.108,south,6.3,No
2017/07/14,12:50,0.359,0.226,0.371,0.346,0.327,0.182,0.108,south,6.3,No
2017/07/14,13:00,0.360,0.225,0.372,0.348,0.329,0.181,0.109,south,7.0,No
2017/07/14,13:10,0.361,0.224,0.372,0.349,0.326,0.182,0.109,south,7.0,No
2017/07/14,13:20,0.363,0.224,0.374,0.348,0.328,0.182,0.110,south,8.6,No
2017/07/14,13:30,0.362,0.225,0.374,0.349,0.329,0.183,0.110,south,9.0,No
2017/07/14,13:40,0.363,0.224,0.374,0.350,0.330,0.182,0.109,south,8.3,No
2017/07/14,13:50,0.363,0.224,0.376,0.349,0.329,0.182,0.110,south,9.3,No
2017/07/14,14:00,0.364,0.224,0.376,0.350,0.328,0.181,0.109,south,11.2,No
2017/07/14,14:10,0.363,0.224,0.375,0.349,0.327,0.181,0.110,south,10.2,No
2017/07/14,14:20,0.363,0.224,0.374,0.348,0.327,0.180,0.109,south,10.4,No
2017/07/14,14:30,0.363,0.223,0.373,0.347,0.326,0.181,0.108,south,12.3,No
2017/07/14,14:40,0.362,0.223,0.372,0.347,0.325,0.181,0.108,south,11.5,No
2017/07/14,14:50,0.362,0.223,0.372,0.346,0.324,0.182,0.109,south,10.9,No
2017/07/14,15:00,0.360,0.223,0.373,0.346,0.325,0.182,0.109,south,11.3,No
2017/07/14,15:10,0.361,0.223,0.373,0.346,0.327,0.182,0.109,south,11.5,No
2017/07/14,15:20,0.361,0.223,0.373,0.346,0.325,0.181,0.109,south,11.9,No
2017/07/14,15:30,0.362,0.224,0.373,0.347,0.325,0.180,0.109,south,12.3,No
2017/07/14,15:40,0.360,0.224,0.371,0.345,0.326,0.183,0.108,south,12.9,No
2017/07/14,15:50,0.361,0.224,0.372,0.348,0.326,0.182,0.109,south,14.0,No
2017/07/14,16:00,0.362,0.223,0.372,0.345,0.326,0.182,0.109,south-southwest,11.9,No
2017/07/14,16:10,0.360,0.223,0.373,0.347,0.326,0.182,0.107,south-southwest,8.4,No
2017/07/14,16:20,0.360,0.223,0.372,0.346,0.325,0.182,0.106,south-southwest,7.5,No
2017/07/14,16:30,0.360,0.223,0.371,0.345,0.325,0.182,0.108,south-southwest,7.6,No
2017/07/14,16:40,0.360,0.223,0.372,0.346,0.326,0.182,0.109,south-southwest,10.1,No
2017/07/14,16:50,0.363,0.223,0.371,0.347,0.326,0.182,0.107,south-southwest,11.1,No
2017/07/14,17:00,0.361,0.223,0.369,0.345,0.326,0.182,0.107,south-southwest,11.5,No
2017/07/14,17:10,0.360,0.222,0.371,0.347,0.327,0.182,0.107,south-southwest,10.3,No
2017/07/14,17:20,0.362,0.223,0.371,0.352,0.325,0.181,0.107,south-southwest,10.0,No
2017/07/14,17:30,0.363,0.222,0.371,0.354,0.326,0.181,0.107,south-southwest,11.5,No
2017/07/14,17:40,0.365,0.222,0.374,0.350,0.326,0.181,0.108,south-southwest,10.1,No
2017/07/14,17:50,0.366,0.222,0.378,0.348,0.325,0.182,0.108,south-southwest,10.4,No
2017/07/14,18:00,0.363,0.222,0.377,0.345,0.325,0.181,0.108,south-southwest,8.9,No
2017/07/14,18:10,0.362,0.226,0.375,0.346,0.325,0.181,0.107,south-southwest,9.7,No
2017/07/14,18:20,0.359,0.225,0.372,0.350,0.324,0.182,0.107,south-southwest,9.9,No
2017/07/14,18:30,0.360,0.224,0.371,0.350,0.325,0.182,0.109,south-southwest,9.3,No
2017/07/14,18:40,0.367,0.222,0.373,0.349,0.323,0.182,0.107,south-southwest,8.8,No
2017/07/14,18:50,0.366,0.224,0.377,0.346,0.331,0.181,0.107,south-southwest,9.9,No
2017/07/14,19:00,0.363,0.227,0.375,0.347,0.330,0.182,0.107,south-southwest,9.8,No
2017/07/14,19:10,0.361,0.223,0.374,0.351,0.327,0.183,0.108,south-southwest,10.1,No
2017/07/14,19:20,0.367,0.223,0.372,0.350,0.324,0.182,0.107,south-southwest,10.9,No
2017/07/14,19:30,0.364,0.226,0.378,0.348,0.329,0.181,0.107,south-southwest,11.0,No
2017/07/14,19:40,0.361,0.226,0.377,0.347,0.331,0.182,0.108,south-southwest,10.7,No
2017/07/14,19:50,0.361,0.224,0.373,0.352,0.326,0.182,0.107,south-southwest,11.2,No
2017/07/14,20:00,0.366,0.223,0.371,0.350,0.325,0.183,0.108,south-southwest,11.7,No
2017/07/14,20:10,0.362,0.225,0.376,0.348,0.331,0.181,0.108,south-southwest,10.6,No
2017/07/14,20:20,0.360,0.224,0.377,0.346,0.328,0.181,0.108,south-southwest,11.1,No
2017/07/14,20:30,0.364,0.222,0.375,0.352,0.326,0.183,0.107,south-southwest,12.0,No
2017/07/14,20:40,0.365,0.225,0.371,0.351,0.326,0.181,0.107,south-southwest,12.1,No
2017/07/14,20:50,0.362,0.225,0.376,0.349,0.329,0.181,0.108,south-southwest,11.3,No
2017/07/14,21:00,0.359,0.225,0.376,0.346,0.326,0.182,0.107,south,11.3,No
2017/07/14,21:10,0.364,0.223,0.373,0.351,0.325,0.182,0.106,south-southwest,10.8,No
2017/07/14,21:20,0.364,0.225,0.372,0.350,0.328,0.182,0.108,south,11.0,No
2017/07/14,21:30,0.361,0.224,0.377,0.346,0.329,0.182,0.108,south,11.9,No
2017/07/14,21:40,0.361,0.222,0.376,0.348,0.327,0.181,0.108,south,11.8,No
2017/07/14,21:50,0.367,0.224,0.371,0.353,0.326,0.182,0.107,south-southwest,10.9,No
2017/07/14,22:00,0.363,0.226,0.375,0.351,0.328,0.181,0.109,south-southwest,11.5,No
2017/07/14,22:10,0.360,0.223,0.377,0.346,0.329,0.181,0.107,south-southwest,10.4,No
2017/07/14,22:20,0.364,0.223,0.374,0.350,0.326,0.183,0.107,south-southwest,11.5,No
2017/07/14,22:30,0.366,0.227,0.372,0.352,0.329,0.182,0.109,south-southwest,9.2,No
2017/07/14,22:40,0.363,0.226,0.376,0.349,0.330,0.181,0.108,south-southwest,7.3,No
2017/07/14,22:50,0.363,0.224,0.377,0.348,0.327,0.182,0.106,south-southwest,7.0,No
2017/07/14,23:00,0.366,0.225,0.375,0.353,0.325,0.182,0.108,south-southwest,8.2,No
2017/07/14,23:10,0.364,0.225,0.374,0.349,0.331,0.181,0.109,south,8.5,No
2017/07/14,23:20,0.363,0.223,0.378,0.348,0.327,0.181,0.107,south-southwest,8.0,No
2017/07/14,23:30,0.366,0.225,0.376,0.350,0.326,0.183,0.108,south,8.9,No
2017/07/14,23:40,0.362,0.225,0.373,0.349,0.329,0.183,0.108,south,9.7,No
2017/07/14,23:50,0.362,0.224,0.377,0.346,0.329,0.182,0.107,south,8.7,No
